• în România
  • Lista ţărilor
  • Pe 7 zile
  • Temperatura apei
  • Hartă satelitară
  • Meteo pe hartă
  • Widget-uri
  • user-avatar
    Intrare

    Meteo pe oră la Makarovskoe

    Astăzi, 20 Septembrie, Joi

    Timp Temperatura Precipitaţii Vânt Presiune Umiditate
    00:00 +13°C° 0 mm 3 m/s 743 mmHg 93%
    01:00 +13°C° 0 mm 3 m/s 743 mmHg 94%
    02:00 +14°C° 0 mm 2 m/s 743 mmHg 96%
    03:00 +13°C° 0 mm 3 m/s 743 mmHg 97%
    04:00 +13°C° 0 mm 3 m/s 743 mmHg 97%
    05:00 +13°C° 0 mm 3 m/s 743 mmHg 97%
    06:00 +14°C° 0 mm 3 m/s 744 mmHg 94%
    07:00 +14°C° 0 mm 3 m/s 744 mmHg 91%
    08:00 +15°C° 0 mm 4 m/s 744 mmHg 88%
    09:00 +15°C° 0 mm 4 m/s 745 mmHg 86%
    10:00 +15°C° 0 mm 4 m/s 745 mmHg 83%
    11:00 +17°C° 0 mm 4 m/s 745 mmHg 81%
    12:00 +18°C° 0 mm 4 m/s 745 mmHg 76%
    13:00 +19°C° 0 mm 4 m/s 746 mmHg 71%
    14:00 +20°C° 0 mm 3 m/s 746 mmHg 66%
    15:00 +19°C° 0 mm 3 m/s 746 mmHg 70%
    16:00 +19°C° 0 mm 2 m/s 746 mmHg 74%
    17:00 +18°C° 0 mm 2 m/s 746 mmHg 79%
    18:00 +17°C° 0 mm 2 m/s 746 mmHg 83%
    19:00 +16°C° 0 mm 2 m/s 746 mmHg 87%
    20:00 +15°C° 0 mm 2 m/s 746 mmHg 91%
    21:00 +15°C° 0 mm 2 m/s 747 mmHg 92%
    22:00 +15°C° 0 mm 2 m/s 747 mmHg 93%
    23:00 +14°C° 0 mm 2 m/s 747 mmHg 94%

    Mâine, 21 Septembrie, Vineri

    Timp Temperatura Precipitaţii Vânt Presiune Umiditate
    00:00 +14°C° 0 mm 2 m/s 747 mmHg 95%
    01:00 +14°C° 0 mm 2 m/s 747 mmHg 95%
    02:00 +14°C° 0 mm 2 m/s 747 mmHg 96%
    03:00 +14°C° 0 mm 2 m/s 747 mmHg 96%
    04:00 +13°C° 0 mm 2 m/s 748 mmHg 96%
    05:00 +13°C° 0 mm 2 m/s 748 mmHg 96%
    06:00 +15°C° 0 mm 2 m/s 748 mmHg 92%
    07:00 +16°C° 0 mm 2 m/s 748 mmHg 87%
    08:00 +17°C° 0 mm 3 m/s 748 mmHg 83%
    09:00 +19°C° 0 mm 3 m/s 748 mmHg 77%
    10:00 +20°C° 0 mm 3 m/s 748 mmHg 72%
    11:00 +22°C° 0 mm 3 m/s 748 mmHg 66%
    12:00 +22°C° 0 mm 3 m/s 748 mmHg 63%
    13:00 +24°C° 0 mm 3 m/s 748 mmHg 60%
    14:00 +25°C° 0 mm 3 m/s 748 mmHg 58%
    15:00 +22°C° 0 mm 3 m/s 748 mmHg 64%
    16:00 +21°C° 0 mm 3 m/s 748 mmHg 71%
    17:00 +20°C° 0 mm 2 m/s 748 mmHg 78%
    18:00 +20°C° 0 mm 2 m/s 748 mmHg 82%
    19:00 +19°C° 0 mm 2 m/s 748 mmHg 86%
    20:00 +18°C° 0 mm 3 m/s 748 mmHg 90%
    21:00 +18°C° 0 mm 3 m/s 748 mmHg 90%
    22:00 +18°C° 0 mm 3 m/s 747 mmHg 91%
    23:00 +17°C° 0 mm 3 m/s 747 mmHg 92%

    Poimâine, 22 Septembrie, Sâmbătă

    Timp Temperatura Precipitaţii Vânt Presiune Umiditate
    00:00 +17°C° 0 mm 3 m/s 747 mmHg 93%
    01:00 +17°C° 0 mm 3 m/s 747 mmHg 94%
    02:00 +17°C° 0 mm 3 m/s 746 mmHg 95%
    03:00 +16°C° 0 mm 3 m/s 746 mmHg 95%
    04:00 +16°C° 0 mm 3 m/s 746 mmHg 95%
    05:00 +15°C° 0 mm 4 m/s 746 mmHg 96%
    06:00 +17°C° 0 mm 4 m/s 745 mmHg 90%
    07:00 +18°C° 0 mm 4 m/s 745 mmHg 84%
    08:00 +19°C° 0 mm 5 m/s 744 mmHg 79%
    09:00 +20°C° 0 mm 5 m/s 744 mmHg 71%
    10:00 +22°C° 0 mm 6 m/s 743 mmHg 64%
    11:00 +23°C° 0 mm 6 m/s 743 mmHg 57%
    12:00 +24°C° 0 mm 6 m/s 742 mmHg 55%
    13:00 +24°C° 0 mm 6 m/s 742 mmHg 52%
    14:00 +24°C° 0 mm 6 m/s 742 mmHg 50%
    15:00 +22°C° 0.5 mm 6 m/s 742 mmHg 59%
    16:00 +21°C° 0.5 mm 5 m/s 742 mmHg 67%
    17:00 +19°C° 0.5 mm 5 m/s 742 mmHg 75%
    18:00 +17°C° 0.1 mm 4 m/s 742 mmHg 80%
    19:00 +14°C° 0.1 mm 3 m/s 742 mmHg 84%
    20:00 +12°C° 0.1 mm 3 m/s 743 mmHg 89%
    21:00 +13°C° 0 mm 2 m/s 743 mmHg 88%
    22:00 +13°C° 0 mm 2 m/s 743 mmHg 88%
    23:00 +12°C° 0 mm 2 m/s 743 mmHg 87%

    23 Septembrie, Duminică

    Timp Temperatura Precipitaţii Vânt Presiune Umiditate
    00:00 +12°C° 0.1 mm 2 m/s 743 mmHg 88%
    01:00 +10°C° 0.1 mm 2 m/s 742 mmHg 88%
    02:00 +10°C° 0.1 mm 2 m/s 742 mmHg 89%
    03:00 +10°C° 0.5 mm 2 m/s 742 mmHg 90%
    04:00 +10°C° 0.5 mm 2 m/s 742 mmHg 91%
    05:00 +9°C° 0.5 mm 2 m/s 742 mmHg 92%
    06:00 +9°C° 0.8 mm 2 m/s 742 mmHg 93%
    07:00 +9°C° 0.8 mm 2 m/s 741 mmHg 93%
    08:00 +9°C° 0.8 mm 2 m/s 741 mmHg 93%
    09:00 +10°C° 0.4 mm 2 m/s 741 mmHg 91%
    10:00 +10°C° 0.4 mm 2 m/s 741 mmHg 88%
    11:00 +11°C° 0.4 mm 3 m/s 741 mmHg 86%
    12:00 +11°C° 0.1 mm 3 m/s 740 mmHg 83%
    13:00 +11°C° 0.1 mm 3 m/s 740 mmHg 80%
    14:00 +12°C° 0.1 mm 3 m/s 740 mmHg 77%
    15:00 +11°C° 0 mm 3 m/s 740 mmHg 79%
    16:00 +12°C° 0 mm 2 m/s 740 mmHg 81%
    17:00 +10°C° 0 mm 2 m/s 739 mmHg 83%
    18:00 +9°C° 0 mm 2 m/s 739 mmHg 86%
    19:00 +9°C° 0 mm 2 m/s 739 mmHg 89%
    20:00 +8°C° 0 mm 2 m/s 739 mmHg 92%
    21:00 +8°C° 0 mm 2 m/s 739 mmHg 92%
    22:00 +7°C° 0 mm 3 m/s 739 mmHg 91%
    23:00 +7°C° 0 mm 3 m/s 739 mmHg 91%

    24 Septembrie, Luni

    Timp Temperatura Precipitaţii Vânt Presiune Umiditate
    00:00 +7°C° 0 mm 3 m/s 739 mmHg 92%
    01:00 +7°C° 0 mm 3 m/s 739 mmHg 93%
    02:00 +5°C° 0 mm 3 m/s 739 mmHg 94%
    03:00 +5°C° 0 mm 3 m/s 739 mmHg 95%
    04:00 +5°C° 0 mm 3 m/s 739 mmHg 95%
    05:00 +5°C° 0 mm 3 m/s 739 mmHg 96%
    06:00 +5°C° 0 mm 3 m/s 739 mmHg 93%
    07:00 +7°C° 0 mm 3 m/s 739 mmHg 89%
    08:00 +8°C° 0 mm 3 m/s 740 mmHg 86%
    09:00 +9°C° 0 mm 3 m/s 739 mmHg 80%
    10:00 +10°C° 0 mm 3 m/s 739 mmHg 74%
    11:00 +11°C° 0 mm 3 m/s 739 mmHg 69%
    12:00 +11°C° 0.2 mm 3 m/s 738 mmHg 70%
    13:00 +11°C° 0.2 mm 4 m/s 737 mmHg 71%
    14:00 +11°C° 0.2 mm 4 m/s 736 mmHg 72%
    15:00 +10°C° 1 mm 4 m/s 736 mmHg 78%
    16:00 +8°C° 1 mm 4 m/s 735 mmHg 84%
    17:00 +7°C° 1 mm 4 m/s 734 mmHg 90%
    18:00 +7°C° 2.1 mm 4 m/s 733 mmHg 90%
    19:00 +7°C° 2.1 mm 5 m/s 731 mmHg 91%
    20:00 +7°C° 2.1 mm 6 m/s 730 mmHg 92%
    21:00 +7°C° 2.4 mm 5 m/s 729 mmHg 93%
    22:00 +7°C° 2.4 mm 5 m/s 727 mmHg 93%
    23:00 +7°C° 2.4 mm 5 m/s 726 mmHg 94%

    25 Septembrie, Marţi

    Timp Temperatura Precipitaţii Vânt Presiune Umiditate
    00:00 +7°C° 1.7 mm 4 m/s 725 mmHg 94%
    01:00 +8°C° 1.7 mm 3 m/s 724 mmHg 94%
    02:00 +8°C° 1.7 mm 3 m/s 724 mmHg 94%
    03:00 +8°C° 0.4 mm 2 m/s 723 mmHg 94%
    04:00 +8°C° 0.4 mm 2 m/s 723 mmHg 95%
    05:00 +9°C° 0.4 mm 1 m/s 723 mmHg 95%
    06:00 +8°C° 0.6 mm 2 m/s 723 mmHg 94%
    07:00 +8°C° 0.6 mm 2 m/s 723 mmHg 94%
    08:00 +8°C° 0.6 mm 3 m/s 724 mmHg 93%
    09:00 +7°C° 0.8 mm 4 m/s 724 mmHg 92%
    10:00 +7°C° 0.8 mm 5 m/s 725 mmHg 90%
    11:00 +7°C° 0.8 mm 6 m/s 726 mmHg 89%
    12:00 +5°C° 0.7 mm 7 m/s 727 mmHg 88%
    13:00 +5°C° 0.7 mm 7 m/s 729 mmHg 87%
    14:00 +4°C° 0.7 mm 8 m/s 730 mmHg 86%
    15:00 +4°C° 0.7 mm 8 m/s 731 mmHg 85%
    16:00 +4°C° 0.7 mm 8 m/s 732 mmHg 84%
    17:00 +4°C° 0.7 mm 8 m/s 734 mmHg 84%
    18:00 +2°C° 0.3 mm 8 m/s 735 mmHg 83%
    19:00 +2°C° 0.3 mm 8 m/s 736 mmHg 82%
    20:00 +3°C° 0.3 mm 7 m/s 737 mmHg 82%
    21:00 +2°C° 0 mm 7 m/s 738 mmHg 80%
    22:00 +2°C° 0 mm 6 m/s 739 mmHg 78%
    23:00 +2°C° 0 mm 6 m/s 740 mmHg 77%
    Arată mai mult